Flag for U.S.A. Weather past 2 weeks in Winder, Georgia, U.S.A.

Now
72 °F

Clear.


Feels Like: 69 °F
Forecast: 76 / 96 °F
Wind: 5 mph from West

Location: Winder-Barrow Airport

Current Time: Aug 21, 2014 at 5:15:00 AM

Latest Report: Aug 21, 2014 at 4:55 AM


Visibility: 10 mi

Pressure: 30.10 "Hg

Humidity: 91%

Dew point: 69 °F

Location of WinderLocation

Historic Weather in Winder — Graph

°F

Winder temperature yesterday

Maximum temperature yesterday: 94 °F (at 1:55 PM)
Minimum temperature yesterday: 74 °F (at 6:55 AM)
Average temperature yesterday: 81 °F

Past Weeks' High & Low Weather Summary

 TemperatureHumidityPressure
High96 °F (Aug 7, 3:55 PM)100% (Aug 8, 2:35 AM)30.15 "Hg (Aug 8, 2:35 AM)
Low66 °F (Aug 15, 5:15 AM)32% (Aug 13, 3:15 PM)29.87 "Hg (Aug 12, 4:35 PM)
Average80 °F77%30.03 "Hg
* Reported Aug 6 4:15 AM — Aug 21 4:15 AM, Winder, Weather by CustomWeather, © 2014

Note: Actual official high and low records may vary slightly from our data, if they occured in-between our weather recording intervals... More about our weather records

Advertising

Winder weather history for previous 24 hours

 ConditionsComfort  
Time TempWeatherWind HumidityBarometerVisibility
4:15 AM
Aug 21
73 °FClear.7 mph87%30.10 "Hg10 mi
3:55 AM73 °FClear.6 mph86%30.10 "Hg10 mi
3:35 AM73 °FClear.3 mph87%30.10 "Hg10 mi
3:15 AM74 °FClear.5 mph84%30.10 "Hg10 mi
2:55 AM74 °FClear.7 mph84%30.10 "Hg10 mi
2:15 AM75 °FClear.No wind83%30.12 "Hg10 mi
1:55 AM75 °FClear.3 mph83%30.13 "Hg10 mi
1:35 AM76 °FClear.3 mph81%30.14 "Hg10 mi
1:15 AM76 °FClear.7 mph82%30.14 "Hg10 mi
12:55 AM76 °FClear.6 mph83%30.15 "Hg10 mi
12:35 AM76 °FClear.5 mph84%30.15 "Hg10 mi
12:15 AM76 °FClear.5 mph85%30.15 "Hg10 mi
11:55 PM
Aug 20
76 °FClear.7 mph85%30.15 "Hg10 mi
11:35 PM76 °FClear.7 mph81%30.14 "Hg10 mi
11:15 PM77 °FPassing clouds.6 mph80%30.15 "Hg10 mi
10:55 PM77 °FClear.7 mph78%30.15 "Hg10 mi
10:35 PM79 °FClear.No wind75%30.14 "Hg10 mi
10:15 PM79 °FClear.8 mph75%30.14 "Hg10 mi
9:55 PM80 °FClear.6 mph78%30.14 "Hg10 mi
9:15 PM81 °FClear.5 mph76%30.11 "Hg10 mi
8:55 PM81 °FSunny.7 mph75%30.10 "Hg10 mi
8:35 PM81 °FSunny.3 mph74%30.08 "Hg10 mi
8:15 PM82 °FSunny.7 mph72%30.09 "Hg10 mi
7:55 PM82 °FSunny.3 mph71%30.09 "Hg10 mi
7:35 PM83 °FSunny.6 mph69%30.10 "Hg10 mi
7:15 PM83 °FSunny.3 mph73%30.09 "Hg10 mi
6:55 PM84 °FSunny.3 mph72%30.07 "Hg10 mi
6:35 PM84 °FThundershowers. Sunny.3 mph70%30.05 "Hg10 mi
6:15 PM84 °FSunny.5 mph71%30.06 "Hg10 mi
5:55 PM83 °FThundershowers. Sunny.5 mph73%30.07 "Hg10 mi
5:35 PM82 °FSunny.6 mph76%30.06 "Hg10 mi
4:55 PM79 °FSunny.6 mph86%30.07 "Hg10 mi
4:35 PM79 °FThunderstorms. Sunny.7 mph83%30.08 "Hg10 mi
4:15 PM81 °FThunderstorms. Sunny.5 mph74%30.08 "Hg10 mi
3:55 PM79 °FThunderstorms. Sunny.3 mph82%30.03 "Hg10 mi
3:35 PM76 °FThunderstorms. Broken clouds.3 mph91%30.05 "Hg10 mi
3:15 PM78 °FThunderstorms. Cloudy.9 mph74%30.07 "Hg5 mi
2:55 PM92 °FThunderstorms. Broken clouds.7 mph57%30.07 "Hg10 mi
2:35 PM93 °FThundershowers. Broken clouds.9 mph56%30.06 "Hg10 mi
2:15 PM94 °FBroken clouds.5 mph57%30.07 "Hg10 mi
1:55 PM94 °FScattered clouds.10 mph59%30.08 "Hg10 mi
1:35 PM93 °FScattered clouds.6 mph59%30.08 "Hg10 mi
1:15 PM92 °FScattered clouds.7 mph61%30.08 "Hg10 mi
12:55 PM92 °FPartly sunny.9 mph62%30.09 "Hg10 mi
12:35 PM92 °FScattered clouds.9 mph62%30.09 "Hg10 mi
12:15 PM92 °FScattered clouds.7 mph63%30.08 "Hg10 mi
11:55 AM91 °FScattered clouds.8 mph65%30.08 "Hg10 mi
11:35 AM89 °FSunny.6 mph69%30.09 "Hg10 mi
11:15 AM88 °FSunny.9 mph71%30.09 "Hg10 mi
10:55 AM87 °FSunny.8 mph73%30.09 "Hg10 mi
10:35 AM85 °FSunny.6 mph76%30.09 "Hg10 mi
10:15 AM84 °FSunny.6 mph78%30.09 "Hg10 mi
9:55 AM83 °FSunny.6 mph78%30.08 "Hg10 mi
9:35 AM82 °FSunny.3 mph81%30.08 "Hg10 mi
9:15 AM80 °FSunny.3 mph85%30.07 "Hg10 mi
8:55 AM78 °FSunny.6 mph89%30.07 "Hg10 mi
8:35 AM77 °FSunny.No wind91%30.06 "Hg10 mi
8:15 AM76 °FSunny.5 mph94%30.06 "Hg10 mi
7:55 AM75 °FClear.5 mph96%30.05 "Hg10 mi
7:35 AM74 °FClear.No wind97%30.04 "Hg10 mi
7:15 AM74 °FClear.No wind99%30.03 "Hg7 mi
6:55 AM74 °FClear.5 mph99%30.03 "Hg7 mi
6:35 AM74 °FClear.No wind97%30.02 "Hg10 mi
6:15 AM75 °FClear.3 mph95%30.02 "Hg10 mi
5:55 AM75 °FClear.6 mph95%30.01 "Hg10 mi
5:35 AM75 °FClear.6 mph95%30.00 "Hg10 mi
5:15 AM75 °FClear.5 mph95%29.99 "Hg10 mi
Weather by CustomWeather, © 2014

See weather overviewHow to use our weather pages